DELTA 1 DEB

Satellite information

Favourite Embed

Satellite Type and Status

DEBRISIN ORBIT

Key statistics

Satellite DELTA 1 DEB at a glance.

Uptime

19037

Days in orbit

Revolutions

≈ 12.4

Per day

Orbit

SSO

Sun Synchronous Orbit

Inclination

102.2

Latest

Satellite identification and parameters

Extended collection of information and parameters for DELTA 1 DEB.

Object identification

Identified? True

Debris? True

Object name: DELTA 1 DEB

International designator: 1973-086EE

Object number (NORAD): 7166

Object ID (CCSDS): 7166

Country: UNITED STATES OF AMERICA (US)

Current information (Y/N): Y

RCS size: SMALL

Orbital parameters

Period: 115.993 minutes

Inclination: 102.2385 deg

SMA: 7878.58 km

Apoapsis: 1511.76 km

Periapsis: 1489.13 km

RAAN: 352.7025 deg

Eccentricy: 0.00143613

Argument of periapsis: 242.3636 deg

Mean anomaly: 180.5742 deg

Mean motion: 12.41454603 rev/day

Mean motion (dot): 0.00000054 rev/day2

B* drag term: 0.00073304071 1/REarth

Two-line elements (TLE)

Creation date: Dec. 19, 2025, 2:08 a.m.

Reference frame: TEME

Reference center: EARTH

Epoch: Dec. 18, 2025, 9:50 p.m. UTC

TLE line 0: 0 DELTA 1 DEB

TLE line 1: 1 07166U 73086EE 25352.91004627 .00000054 00000-0 73304-3 0 9999

TLE line 2: 2 07166 102.2385 352.7025 0014361 242.3636 180.5742 12.41454603358247

Live tracking on map

Real-time ground track for satellite DELTA 1 DEB.

In-orbit conjunctions

A list of the most updated potential collisions computed for object DELTA 1 DEB.

Target Orbit TCA Probability of collision Miss distance Type
THOR ABLESTAR DEB LEO 2024-11-10 20:26:52 0.0001976583 557.0 (m) DEBRIS
COSMOS 1479 LEO 2024-06-21 05:54:34 0.0001193902 199.0 (m) PAYLOAD

Associated space launch

Meteorological satellite using radiometric imaging

DELTA 1 DEB was lifted into orbit during the mission ‘Delta 0300 | NOAA 3’, on board a Delta 0300 space rocket.

The launch took place on Nov. 6, 1973, 5:02 p.m. from Space Launch Complex 2W.

For more information about the launch, click the button.

Launch to space Delta 0300 | NOAA 3
Delta 0300 | NOAA 3

Agency: N/A

Status: Launch Successful

Launch date: Nov. 6, 1973, 5:02 p.m. UTC

Rocket: Delta 0300

Launch pad: Space Launch Complex 2W

Location: Vandenberg SFB, CA, USA

...

Latest news about this satellite

There are no fresh news available about this satellite. Check back as we update our databases every day.


Newsletter sign-up

Weekly statistics, charts and insights to help you stay on top of the space industry.